Regional Weather Roundup
Issued by NWS Newport/Morehead, NC

Current Version | Previous Version | Graphics & Text | Print | Product List | Glossary Off
Versions: 1 2 3 4 5 6 7 8 9 10 11 12 13 14 15 16 17 18 19 20 21 22 23 24 25 26 27 28 29 30 31 32 33 34 35 36 37 38 39 40 41 42 43 44 45 46 47 48 49 50

887
ASUS42 KMHX 171313
RWRMHX
WEATHER ROUNDUP FOR EASTERN NORTH CAROLINA
NATIONAL WEATHER SERVICE NEWPORT/MOREHEAD CITY NC
800 AM EST TUE JAN 17 2017

NOTE: "FAIR" INDICATES FEW OR NO CLOUDS BELOW 12,000 FEET
WITH NO SIGNIFICANT WEATHER AND/OR OBSTRUCTIONS TO VISIBILITY

NCZ015>017-031-032-045>047-102-103-171400-
NORTH COAST

CITY           SKY/WX    TMP DP  RH WIND       PRES   REMARKS
EDENTON        CLOUDY    47  41  80 CALM      30.29R
ELIZABETH CITY CLOUDY    44  41  89 CALM      30.28R
KITTY HAWK     NOT AVBL
MANTEO         CLOUDY    43  43 100 NE3       30.26F

$$

NCZ045>047-081-094-103-104-171400-
CENTRAL COAST

CITY           SKY/WX    TMP DP  RH WIND       PRES   REMARKS
FRISCO         CLOUDY    49  45  86 N3        30.27R

$$

NCZ095-097-098-100-101-171400-
SOUTHERN COAST

CITY           SKY/WX    TMP DP  RH WIND       PRES   REMARKS
BEAUFORT       CLOUDY    48  45  89 CALM      30.27R
CEDAR ISLAND   NOT AVBL
JACKSONVILLE   MOCLDY    48  46  93 CALM      30.27R
PINEY ISLAND   CLOUDY   N/A N/A N/A N3        30.27R
WILMINGTON     CLOUDY    50  48  93 CALM      30.27R


$$

NCZ011>013-027>030-043-044-078>080-089-090>093-098-171400-
COASTAL PLAIN

CITY           SKY/WX    TMP DP  RH WIND       PRES   REMARKS
AHOSKIE          N/A     45  41  88 S3        30.27F
CLINTON        CLOUDY    48  47  96 CALM      30.28R
ELIZABETHTOWN  CLOUDY    50  48  95 CALM      30.27S FOG
GOLDSBORO      CLOUDY    46  46 100 E3        30.25F
GREENVILLE     CLOUDY    48  45  87 CALM      30.28S
HAVELOCK       MOCLDY    47  43  86 N3        30.28R
KENANSVILLE    MOCLDY    41  41 100 CALM      30.28R FOG
KINSTON        PTCLDY    45  43  93 CALM      30.28S
NEW BERN       PTCLDY    44  42  93 CALM      30.28S
RICHLANDS      CLEAR     45  44  97 CALM      30.28R
ROCKY MOUNT    CLOUDY    48  47  96 S6        30.26F
WASHINGTON       N/A     45  41  85 CALM      30.29R
WHITEVILLE     FOG       50  49  97 CALM      30.26S VSB<1/4

$$

AMZ130-135-150-152-154-156-158-170-250-252-270-ANZ085-086-088-633-658-670-171400-
MARINE OBSERVATIONS

STATION/POSITION TIME  TEMP    WIND        PRES    WAVE   SWELL
                       AIR SEA DIR/SP/G            HT/PER HT/PER
                 (UTC) (F)     (DEG/KT/KT) (MB)    (FT/S) (FT/S)
CHESAPEAKE LIGHT NOT AVBL
64 E VA BEACH    1250   53 55  350/  6/  6 1024.0    2/ 8   2/ 8
DUCK             1242   44 44  280/  3/  3 1024.2
2 E DUCK         1230      44                N/A     2/10
OREGON INLET     1242   45 48  350/  2/  4 1024.6
13E OREGON INLT  NOT AVBL
HATTERAS CG      1242   47 52  360/  3/  3 1024.5
DIAMOND BUOY     1250   58 72   10/  8/ 10 1024.7    2/10   2/10
CAPE LOOKOUT     1200   49      10/  5/  5 1024.0
BEAUFORT LAB     1242   47 49   10/  5/  6 1023.8
30 SE NEW RVR IN 1208   59 61  110/  4/  6 1024.3
30 SE NEW RVR IN 1243      62                N/A     3/ 8
27 SE WRIGHTSVLE 1208   65 68   80/  4/  8 1024.0
5 SE WRIGHTSVLE  NOT AVBL
225 S CAPE HAT   1250   71 72  190/ 14/ 16 1025.5    3/10   2/10
41 SE CHARLESTON 1150   70 70  170/  4/  4 1023.8    3/ 9   3/ 9

$$




USA.gov is the U.S. government's official web portal to all federal, state and local government web resources and services.